Погода в Ампосте

Испания     40°42′22″N   0°34′36″E
темп.,
°C
ветер,
м/с
пор.,
м/с
влажн.,
%
обл.,
%
осадки,
мм/ч
давл.,
гПа
погр.,
м
12 мая, ср
ср1223:00+13з22432 0.0 101916
02:00+13зсз2243100 0.0 101817
05:00+13зсз224158 0.0 101712
08:00+15сз114166 0.0 101632
11:00+17з2341100 0.1 10161018
14:00+18зсз594612 0.1 10151131
17:00+23сз6112648 0.0 10123041
20:00+21сз812340 0.0 10121563
13 мая, чт
чт1323:00+14сз612630 0.0 1016691
02:00+12з385964 0.0 1017411
05:00+11зсз496273 0.0 1016366
08:00+12з376145 0.0 1016572
11:00+18зсз573661 0.0 10151536
14:00+23сз692996 0.0 10132408
17:00+20ююз464399 0.0 1011989
20:00+19зсз2556100 0.0 1012582
14 мая, пт
пт1423:00+16з227274 1.4 101233
02:00+15зсз3571100 1.4 1011209
05:00+13зсз237774 0.0 1011105
08:00+14зсз49644 0.0 1013825
11:00+17зсз713372 0.0 10141336
14:00+20сз101231100 0.0 10141836
17:00+21сз10132883 0.0 10131851
20:00+20сз5933100 0.0 1014912
15 мая, сб
сб1523:00+16з2245100 0.0 101627
02:00+14з2248100 0.0 101513
05:00+14з224941 0.0 101413
08:00+16сз224697 0.0 101538
11:00+22ююв1333100 0.0 10141090
14:00+25юв343173 0.0 10131094
17:00+25ююв553441 0.0 1012833
20:00+23ю334354 0.0 1012181
16 мая, вс
вс1623:00+21з2252100 0.0 101321
02:00+20зсз226252 0.0 101221
05:00+18зсз22701 0.0 101214
08:00+20сз22593 0.0 101341
11:00+28зсз043016 0.0 10131408
14:00+27вюв4337100 0.0 10131273
17:00+27юв4341100 0.0 1011865
20:00+21вюв2263100 0.0 1012303